User: anonymous   Login
Location: Banff
(51.1667°N, 115.5667°W)
Time: 10:57:43
(UTC+00:00)
Language:

Explorer 7 - Orbit

View from above orbital plane
View from above orbital plane
View from above satellite
View from above satellite

Ground track
Ground track

The orbit data is extracted from the following two-line orbital elements,

1    22U 59009A   20334.91325651 +.00001015 +00000-0 +97903-4 0  9990
2    22 050.2853 045.6408 0139323 170.9934 189.3561 14.95317680495128
Epoch (UTC): 29 November 2020 21:55:05
Eccentricity: 0.0139323
inclination: 50.2853°
perigee height: 484 km
apogee height: 678 km
right ascension of ascending node: 45.6408°
argument of perigee: 170.9934°
revolutions per day: 14.95317680
mean anomaly at epoch: 189.3561°
orbit number at epoch: 49512

The dashed part of the orbit path shows where the satellite is in the earth's shadow,  

DLR